Theta_e
355 342 349 350 350 349 347 343 341 341 341 339 336 334 327 320 320 324 325 325 324 323 323 329 332 335 334 336 334 331 325 322 322 321 321 321 322 322 322 323 329 342 329
353 343 350 350 351 349 345 341 339 340 340 339 337 335 330 321 321 324 324 322 323 324 326 330 333 333 330 332 335 332 325 322 322 322 322 322 325 324 324 323 324 330 332
350 342 349 350 350 349 344 339 338 339 339 339 338 336 332 323 321 323 322 322 325 328 330 331 332 331 329 326 329 333 328 321 322 323 338 342 347 343 324 324 323 323 323
343 343 347 349 350 348 342 338 336 337 340 339 339 337 333 324 322 324 324 327 330 329 328 326 327 328 330 326 322 322 323 321 322 329 344 342 349 343 339 342 336 327 323
350 344 348 347 348 347 340 337 336 336 338 339 339 337 334 326 323 324 327 330 335 337 333 333 335 333 323 322 322 321 321 322 324 343 347 348 347 347 347 346 340 338 334
354 348 348 349 346 346 339 337 336 336 336 337 338 337 334 327 324 324 327 330 331 334 339 338 329 324 324 322 322 322 322 323 327 348 351 349 345 346 345 343 340 340 339
355 350 350 349 347 346 339 337 336 334 334 334 333 332 331 327 325 323 326 327 328 326 326 326 324 326 327 326 323 322 323 323 325 345 350 348 347 347 346 345 340 341 341
360 356 350 349 348 346 339 337 337 333 330 330 328 328 326 326 325 323 324 326 327 327 328 327 326 325 324 325 325 323 323 325 331 347 346 347 347 345 345 343 340 336 340
359 359 351 348 347 345 338 337 336 333 330 328 326 324 325 325 323 322 324 326 328 326 325 325 325 324 324 324 323 323 324 325 331 333 344 343 344 344 343 339 336 331 332
359 361 349 349 347 343 338 336 335 332 330 328 324 323 323 322 322 321 324 325 326 325 324 324 325 324 324 324 322 322 322 322 324 328 337 340 340 339 337 334 333 332 327
359 360 351 347 347 340 337 336 335 332 330 327 324 322 320 320 320 322 325 326 324 324 325 325 324 323 321 321 327 338 338 336 329 334 335 338 336 335 335 340 340 338 338
358 358 352 348 346 342 339 337 335 333 330 328 325 321 319 327 322 332 328 325 327 324 324 323 322 322 323 337 339 339 339 339 337 337 337 336 336 340 343 343 341 340 339
356 357 354 351 347 343 343 339 335 334 332 330 327 322 323 338 335 341 340 337 324 322 324 330 337 334 340 341 340 339 338 339 340 341 341 340 342 343 343 342 341 340 340
356 357 355 353 348 345 345 345 336 336 335 335 333 324 335 340 341 341 343 342 339 339 335 339 339 340 340 338 336 343 344 344 343 341 340 344 341 343 342 341 341 340 337
355 357 355 355 349 348 348 347 342 342 339 341 341 331 339 341 344 338 341 341 341 338 339 339 340 340 339 343 346 345 344 344 345 343 342 340 344 341 341 341 338 336 336
353 356 356 355 352 351 350 348 347 347 345 346 346 339 343 339 342 335 341 340 340 339 339 343 343 343 346 348 347 346 348 343 344 344 342 342 338 342 342 336 336 336 336
353 351 357 357 354 350 351 348 349 348 347 347 348 347 344 340 342 340 339 338 339 337 339 345 345 345 344 344 348 349 343 339 337 336 339 343 342 341 336 338 337 336 335
344 358 358 358 355 352 355 349 349 349 348 347 347 347 343 339 339 337 338 338 338 337 344 346 347 348 348 348 346 344 332 335 333 331 339 338 336 337 337 336 336 336 334
333 358 358 358 357 354 352 351 351 350 348 347 348 348 342 337 339 329 338 338 337 341 345 346 346 347 346 345 344 342 334 335 331 338 337 337 337 337 335 337 336 334 335
335 359 358 358 355 355 352 352 351 351 348 347 347 347 343 333 333 332 338 345 344 341 344 346 345 345 345 343 341 335 330 330 335 336 338 338 338 335 334 336 331 330 328
332 356 357 355 355 355 353 352 353 351 349 347 346 346 344 333 334 329 340 341 345 346 343 344 344 343 342 335 332 331 332 333 334 334 337 330 331 331 331 322 328 325 317
326 348 352 353 356 354 353 351 354 347 348 347 347 346 342 345 340 335 337 342 342 340 337 339 342 340 337 336 334 334 334 332 331 328 328 328 328 324 318 319 318 319 319
325 342 349 352 354 352 353 350 352 348 348 347 347 345 347 343 336 343 342 344 343 341 340 338 335 333 333 332 333 334 336 336 332 331 326 326 319 316 320 321 320 319 322
325 337 350 356 354 353 353 350 349 349 349 348 348 345 346 349 348 349 345 343 342 339 332 329 331 335 334 337 335 334 332 330 328 324 321 315 317 321 321 320 318 317 319
336 348 346 355 353 353 351 350 349 349 349 349 349 349 348 351 346 344 342 339 334 335 332 335 329 332 335 334 332 329 322 319 319 319 319 319 321 320 319 317 318 317 319
352 347 352 356 354 353 351 349 350 349 350 349 350 348 349 346 343 339 331 330 332 331 329 329 330 333 333 330 323 316 317 316 319 319 321 321 320 318 317 319 319 317 316
Wind_Speed
10 25 27 24 22 20 18 16 15 14 13 11 11 11 11 12 15 16 15 15 15 15 15 14 12 10 8 7 8 7 5 3 3 3 4 3 3 3 3 3 2 3 2
12 27 26 24 21 19 17 15 14 14 13 12 11 11 10 12 14 15 15 14 14 14 14 11 10 7 5 5 4 3 2 2 3 2 3 4 5 6 5 3 4 5 4
11 28 26 23 21 19 17 16 14 14 13 12 11 10 10 11 13 14 15 14 13 12 11 9 6 4 2 2 1 1 1 2 3 6 9 2 6 13 10 8 7 6 6
13 30 27 24 21 19 18 16 14 14 14 13 11 10 9 11 13 13 13 13 11 9 8 6 4 3 1 1 1 1 1 2 3 6 9 12 5 13 11 12 11 10 9
12 31 28 24 21 19 18 16 14 14 13 12 11 9 9 10 12 12 12 11 9 8 7 6 3 0 2 2 2 2 1 1 4 7 8 7 6 9 12 16 16 13 11
15 31 27 24 21 19 18 16 15 14 14 12 11 9 9 9 11 12 11 9 7 6 5 3 1 1 1 2 2 3 3 2 4 3 4 7 12 15 14 17 14 13 14
15 28 28 24 21 19 19 17 14 13 13 12 11 9 9 9 11 11 10 7 6 4 3 3 2 2 3 4 4 4 4 4 5 2 4 8 10 13 14 19 18 17 16
18 19 25 25 21 20 19 18 15 14 13 12 10 10 9 9 10 10 9 7 5 4 3 3 4 4 5 6 6 6 6 6 5 4 3 9 16 16 17 19 23 23 21
19 19 21 27 24 21 20 18 16 14 13 12 11 10 9 10 10 11 10 7 6 4 4 5 6 6 7 7 8 8 8 8 8 8 7 10 12 13 17 22 26 27 25
20 17 22 29 26 24 22 20 18 15 13 12 10 9 10 10 11 11 10 7 6 6 6 7 7 7 8 8 8 9 11 11 11 7 8 8 15 17 20 25 28 25 24
21 17 20 29 28 25 24 22 19 17 14 12 11 10 10 11 11 10 9 8 7 7 6 7 7 7 7 7 5 10 13 12 6 8 13 14 17 21 23 25 26 27 26
24 20 20 25 29 25 22 23 21 18 16 14 12 11 11 6 8 3 6 6 7 6 6 5 6 6 6 7 10 9 11 11 11 10 13 16 17 19 21 25 28 29 30
28 24 24 23 26 23 21 22 23 20 18 15 13 12 13 9 7 11 5 7 7 5 5 1 7 5 5 8 6 9 11 12 12 13 15 19 17 21 27 29 32 33 31
27 28 29 23 23 25 25 17 22 21 18 15 13 14 16 13 10 10 6 7 6 3 5 3 7 4 5 12 4 3 5 8 10 13 14 20 25 28 29 30 30 31 30
30 32 34 27 24 28 24 18 20 19 18 15 14 14 16 16 12 13 11 7 6 4 4 4 4 7 11 6 5 4 9 9 9 13 17 18 19 26 23 25 27 30 28
32 36 39 32 27 30 24 15 20 14 13 15 10 14 14 14 13 12 12 15 8 8 8 7 7 7 7 9 8 13 7 6 7 13 15 19 20 20 20 26 27 24 30
26 31 53 36 29 34 22 17 23 21 15 19 14 12 16 14 14 11 9 8 6 6 11 13 12 10 7 12 14 12 10 4 5 12 12 17 15 22 20 20 23 29 29
13 32 21 31 32 31 25 25 23 21 17 19 17 15 19 17 11 16 7 6 7 10 9 7 13 14 11 10 8 15 3 3 12 20 12 19 19 15 15 24 25 28 29
18 33 36 34 32 32 32 27 23 19 20 17 19 13 16 16 12 15 11 10 14 14 16 17 18 16 16 17 15 12 11 9 20 15 15 12 12 15 20 20 20 23 24
18 28 37 35 33 32 34 27 24 22 21 20 18 15 13 15 14 15 13 15 18 19 18 19 19 18 17 21 18 17 15 14 14 11 11 8 13 21 23 23 29 23 24
23 23 30 33 34 33 36 32 26 26 22 20 20 18 13 14 14 17 14 17 17 16 17 17 16 18 19 13 16 19 22 7 10 8 11 22 20 25 24 31 23 29 34
30 29 33 30 34 33 39 34 26 25 25 23 23 21 15 13 12 10 10 11 11 10 11 14 18 16 18 17 13 13 10 13 7 20 14 24 26 31 28 29 28 23 27
39 29 35 34 34 31 39 33 28 24 25 26 24 20 20 16 9 6 14 13 7 5 11 10 9 8 5 6 8 7 5 6 24 11 23 23 29 28 27 23 25 25 24
40 38 36 35 31 35 38 28 29 29 29 27 21 17 13 12 15 14 11 4 6 3 2 7 6 6 9 9 8 11 10 10 8 19 27 29 25 22 21 28 32 27 19
41 42 39 37 33 39 36 28 27 28 28 24 22 22 21 17 12 9 4 5 6 4 7 6 5 5 6 8 12 14 12 12 12 16 23 26 22 22 29 24 23 26 23
43 42 39 42 39 46 41 39 27 25 29 32 25 23 18 16 10 8 10 10 9 6 6 5 5 6 9 11 11 13 13 12 16 17 19 21 23 26 25 28 24 23 27
Wind_Direction
167 160 159 157 154 152 151 152 155 158 156 149 140 128 125 125 126 126 126 130 133 131 133 134 132 129 126 138 153 166 176 165 150 153 154 139 113 98 95 114 120 4 352
153 162 161 160 157 156 155 156 158 163 163 158 148 135 131 128 130 131 130 133 131 132 136 138 138 133 111 115 146 136 113 109 104 97 93 87 43 32 15 351 315 338 285
159 164 163 163 161 160 160 161 164 170 169 164 157 145 139 135 137 135 133 134 133 138 143 147 149 149 114 86 108 123 68 63 69 67 57 6 14 351 355 351 331 323 301
134 166 166 167 163 162 161 163 165 172 175 171 168 158 148 145 146 143 139 136 136 144 151 155 155 161 141 19 21 25 33 60 82 87 70 46 288 313 317 339 338 324 315
164 169 169 166 164 163 164 165 164 170 174 176 176 169 156 154 154 151 149 143 138 142 147 156 162 216 349 1 348 327 326 55 107 87 67 31 253 312 318 329 325 323 324
170 176 169 168 165 166 165 168 168 169 175 180 180 178 168 162 162 163 160 156 153 151 157 164 150 20 332 314 296 284 274 239 153 131 34 300 297 295 310 323 325 322 317
159 176 172 171 167 168 167 170 171 169 175 182 181 181 179 173 174 173 171 173 170 160 164 186 215 261 286 296 296 286 275 252 232 258 24 279 288 282 307 316 318 319 316
156 178 174 174 169 171 171 173 175 174 175 180 180 184 183 187 182 178 183 186 186 182 191 216 242 268 282 290 292 292 287 269 251 206 287 320 292 291 300 311 315 311 306
163 188 180 177 173 174 175 178 182 181 179 180 182 185 186 190 185 186 191 193 205 212 232 254 267 279 284 292 302 305 302 292 278 274 265 316 318 304 308 312 314 310 304
165 189 179 180 174 177 181 181 185 186 184 181 182 183 188 189 186 190 195 206 227 246 260 269 278 283 289 303 318 330 326 315 305 309 348 302 276 293 308 313 313 313 305
165 180 181 181 177 181 185 183 187 188 186 181 182 182 184 188 187 190 200 214 237 258 268 279 291 302 314 326 23 8 4 3 2 8 318 295 293 300 304 310 315 313 307
172 171 177 181 178 178 191 186 188 190 188 185 186 179 175 173 191 174 222 247 256 262 274 291 317 322 343 32 350 329 349 348 355 328 297 280 291 299 313 317 320 319 314
173 171 176 186 178 170 198 187 191 189 190 187 189 178 158 175 167 197 254 273 265 267 317 287 0 7 26 11 305 322 332 333 316 309 318 322 319 324 321 324 322 321 318
176 174 182 184 174 166 195 196 189 188 189 188 190 175 148 181 210 181 254 322 336 349 353 346 331 320 314 270 288 307 300 303 298 308 319 320 321 323 324 320 320 321 324
181 176 184 182 172 172 192 202 195 191 189 184 193 177 166 179 207 193 190 199 263 214 310 300 253 240 289 318 340 317 274 276 312 313 309 308 313 319 321 322 323 321 322
185 179 183 180 170 169 188 187 179 183 177 172 198 183 177 177 217 206 190 202 197 215 203 253 268 260 288 310 255 252 254 264 313 312 304 297 305 300 313 321 318 321 322
184 190 174 171 172 170 184 178 179 180 179 175 190 204 184 169 218 182 202 203 202 225 216 222 227 260 252 245 264 255 267 262 313 327 328 313 294 302 326 320 322 321 319
191 179 181 177 178 187 178 173 177 185 183 173 190 209 184 182 209 183 175 207 194 224 255 251 244 229 242 243 266 263 244 347 330 334 317 305 321 349 322 311 312 313 324
221 184 183 186 191 195 181 183 175 190 176 175 186 208 182 187 201 171 172 224 214 209 224 236 241 238 243 250 254 263 265 304 341 326 327 330 328 316 313 320 322 320 319
211 194 192 194 203 197 187 179 176 182 174 177 180 205 200 187 194 178 182 214 216 227 233 248 258 263 262 261 274 286 301 300 333 341 302 294 306 310 308 308 312 311 311
206 194 191 195 197 194 187 178 181 182 172 175 184 199 205 191 196 186 194 237 237 243 249 259 271 274 267 284 302 294 292 304 324 317 314 311 310 317 315 316 311 309 314
203 205 206 197 194 199 186 175 180 175 175 171 190 199 202 192 203 196 185 249 261 272 268 268 271 284 293 296 311 337 313 303 285 312 318 322 326 325 329 318 325 324 325
198 197 203 198 194 196 186 176 180 174 170 178 194 196 182 192 188 174 195 214 258 212 283 312 324 343 353 357 352 9 0 337 324 311 327 328 331 343 349 341 321 331 345
197 200 196 194 190 191 182 180 177 173 170 186 194 176 175 174 182 197 201 221 265 262 62 61 60 41 358 12 7 339 349 347 339 325 318 338 348 343 330 317 321 336 324
185 190 191 197 195 188 179 177 175 173 174 179 169 171 179 179 190 180 190 179 146 113 95 99 91 5 356 353 343 337 343 346 337 330 322 331 339 329 318 358 357 349 346
178 188 189 192 190 179 173 166 163 183 181 179 175 178 172 180 162 143 141 118 99 112 106 79 4 350 349 341 345 346 341 353 339 333 330 333 331 326 351 357 359 344 326